Time,TemperatureF,DewpointF,PressureIn,WindDirection,WindDirectionDegrees,WindSpeedMPH,WindSpeedGustMPH,Humidity,HourlyPrecipIn,Conditions,Clouds,dailyrainin,SoftwareType,DateUTC
2013-02-23 00:04:00,44.0,39.5,30.16,SE,130,0.0,0.0,84,0.00,,,0.00,Wunderground v.1.15,2013-02-23 08:04:00,
2013-02-23 00:14:00,44.5,39.3,30.16,SE,130,0.0,0.0,82,0.00,,,0.00,Wunderground v.1.15,2013-02-23 08:14:00,
2013-02-23 00:24:00,44.0,38.9,30.15,SE,130,0.0,0.0,82,0.00,,,0.00,Wunderground v.1.15,2013-02-23 08:24:00,
2013-02-23 00:34:00,43.2,38.4,30.15,ESE,106,0.0,0.0,83,0.00,,,0.00,Wunderground v.1.15,2013-02-23 08:34:00,
2013-02-23 00:44:00,42.9,38.1,30.15,ESE,106,0.0,0.0,83,0.00,,,0.00,Wunderground v.1.15,2013-02-23 08:44:00,
2013-02-23 00:54:00,43.1,38.0,30.15,ESE,106,0.0,0.0,82,0.00,,,0.00,Wunderground v.1.15,2013-02-23 08:54:00,
2013-02-23 01:04:00,42.9,37.8,30.14,ESE,106,0.0,0.0,82,0.00,,,0.00,Wunderground v.1.15,2013-02-23 09:04:00,
2013-02-23 01:14:00,42.5,37.7,30.13,ESE,106,0.0,0.0,83,0.00,,,0.00,Wunderground v.1.15,2013-02-23 09:14:00,
2013-02-23 01:24:00,42.3,37.5,30.13,ESE,106,0.0,0.0,83,0.00,,,0.00,Wunderground v.1.15,2013-02-23 09:24:00,
2013-02-23 01:34:00,41.9,37.1,30.13,ESE,106,0.0,0.0,83,0.00,,,0.00,Wunderground v.1.15,2013-02-23 09:34:00,
2013-02-23 01:44:00,41.7,37.2,30.13,ESE,106,0.0,0.0,84,0.00,,,0.00,Wunderground v.1.15,2013-02-23 09:44:00,
2013-02-23 01:54:00,41.7,37.2,30.13,ESE,106,0.0,0.0,84,0.00,,,0.00,Wunderground v.1.15,2013-02-23 09:54:00,
2013-02-23 02:04:00,41.6,37.1,30.13,ESE,106,0.0,0.0,84,0.00,,,0.00,Wunderground v.1.15,2013-02-23 10:04:00,
2013-02-23 02:14:00,41.1,36.6,30.12,ESE,106,0.0,0.0,84,0.00,,,0.00,Wunderground v.1.15,2013-02-23 10:14:00,
2013-02-23 02:24:00,40.8,36.3,30.12,ESE,106,0.0,0.0,84,0.00,,,0.00,Wunderground v.1.15,2013-02-23 10:24:00,
2013-02-23 02:34:00,40.4,36.2,30.11,ESE,106,0.0,0.0,85,0.00,,,0.00,Wunderground v.1.15,2013-02-23 10:34:00,
2013-02-23 02:44:00,40.2,36.1,30.11,ESE,106,0.0,0.0,85,0.00,,,0.00,Wunderground v.1.15,2013-02-23 10:44:00,
2013-02-23 02:54:00,41.3,36.8,30.10,ESE,111,0.0,0.0,84,0.00,,,0.00,Wunderground v.1.15,2013-02-23 10:54:00,
2013-02-23 03:04:00,42.9,36.8,30.10,ESE,111,0.0,0.0,79,0.00,,,0.00,Wunderground v.1.15,2013-02-23 11:04:00,
2013-02-23 03:14:00,42.7,36.6,30.10,ESE,111,0.0,0.0,79,0.00,,,0.00,Wunderground v.1.15,2013-02-23 11:14:00,
2013-02-23 03:24:00,42.2,36.2,30.10,ESE,111,0.0,0.0,79,0.00,,,0.00,Wunderground v.1.15,2013-02-23 11:24:00,
2013-02-23 03:34:00,41.1,35.7,30.10,ESE,111,0.0,0.0,81,0.00,,,0.00,Wunderground v.1.15,2013-02-23 11:34:00,
2013-02-23 03:44:00,40.7,35.6,30.10,ESE,111,0.0,0.0,82,0.00,,,0.00,Wunderground v.1.15,2013-02-23 11:44:00,
2013-02-23 03:54:00,40.4,35.6,30.10,ESE,111,0.0,0.0,83,0.00,,,0.00,Wunderground v.1.15,2013-02-23 11:54:00,
2013-02-23 04:04:00,40.3,35.8,30.10,ESE,111,0.0,0.0,84,0.00,,,0.00,Wunderground v.1.15,2013-02-23 12:04:00,
2013-02-23 04:14:00,40.4,36.2,30.10,ESE,111,0.0,0.0,85,0.00,,,0.00,Wunderground v.1.15,2013-02-23 12:14:00,
2013-02-23 04:24:00,40.5,36.0,30.11,ESE,111,0.0,0.0,84,0.00,,,0.00,Wunderground v.1.15,2013-02-23 12:24:00,
2013-02-23 04:34:00,40.2,35.8,30.11,ESE,111,0.0,0.0,84,0.00,,,0.00,Wunderground v.1.15,2013-02-23 12:34:00,
2013-02-23 04:44:00,39.9,35.5,30.11,ESE,111,0.0,0.0,84,0.00,,,0.00,Wunderground v.1.15,2013-02-23 12:44:00,
2013-02-23 04:54:00,39.2,35.1,30.11,ESE,111,0.0,0.0,85,0.00,,,0.00,Wunderground v.1.15,2013-02-23 12:54:00,
2013-02-23 05:04:00,38.6,34.5,30.11,ESE,111,0.0,0.0,85,0.00,,,0.00,Wunderground v.1.15,2013-02-23 13:04:00,
2013-02-23 05:14:00,38.5,35.0,30.10,ESE,111,0.0,0.0,87,0.00,,,0.00,Wunderground v.1.15,2013-02-23 13:14:00,
2013-02-23 05:24:00,40.5,35.7,30.10,ESE,104,0.0,0.0,83,0.00,,,0.00,Wunderground v.1.15,2013-02-23 13:24:00,
2013-02-23 05:34:00,40.6,35.2,30.10,ESE,104,0.0,0.0,81,0.00,,,0.00,Wunderground v.1.15,2013-02-23 13:34:00,
2013-02-23 05:44:00,40.7,35.6,30.09,ESE,104,0.0,0.0,82,0.00,,,0.00,Wunderground v.1.15,2013-02-23 13:44:00,
2013-02-23 05:54:00,41.5,35.8,30.08,ESE,104,0.0,0.0,80,0.00,,,0.00,Wunderground v.1.15,2013-02-23 13:54:00,
2013-02-23 06:04:00,41.1,35.7,30.09,ESE,104,0.0,0.0,81,0.00,,,0.00,Wunderground v.1.15,2013-02-23 14:04:00,
2013-02-23 06:14:00,40.7,35.3,30.09,ESE,104,0.0,0.0,81,0.00,,,0.00,Wunderground v.1.15,2013-02-23 14:14:00,
2013-02-23 06:24:00,40.4,35.3,30.09,ESE,104,0.0,0.0,82,0.00,,,0.00,Wunderground v.1.15,2013-02-23 14:24:00,
2013-02-23 06:34:00,39.5,34.8,30.09,ESE,104,0.0,0.0,83,0.00,,,0.00,Wunderground v.1.15,2013-02-23 14:34:00,
2013-02-23 06:44:00,38.5,34.1,30.09,ESE,104,0.0,0.0,84,0.00,,,0.00,Wunderground v.1.15,2013-02-23 14:44:00,
2013-02-23 06:54:00,38.6,34.5,30.09,ESE,104,0.0,0.0,85,0.00,,,0.00,Wunderground v.1.15,2013-02-23 14:54:00,
2013-02-23 07:04:00,38.8,34.7,30.09,ESE,104,0.0,0.0,85,0.00,,,0.00,Wunderground v.1.15,2013-02-23 15:04:00,
2013-02-23 07:14:00,39.7,35.6,30.10,ESE,104,0.0,0.0,85,0.00,,,0.00,Wunderground v.1.15,2013-02-23 15:14:00,
2013-02-23 07:24:00,41.3,36.5,30.10,ESE,104,0.0,0.0,83,0.00,,,0.00,Wunderground v.1.15,2013-02-23 15:24:00,
2013-02-23 07:34:00,43.7,37.6,30.10,ESE,104,0.0,0.0,79,0.00,,,0.00,Wunderground v.1.15,2013-02-23 15:34:00,
2013-02-23 07:44:00,45.7,38.2,30.11,ESE,104,0.0,0.0,75,0.00,,,0.00,Wunderground v.1.15,2013-02-23 15:44:00,
2013-02-23 07:54:00,47.9,38.9,30.10,ESE,104,0.0,0.0,71,0.00,,,0.00,Wunderground v.1.15,2013-02-23 15:54:00,
2013-02-23 08:04:00,49.6,38.7,30.10,ESE,105,0.0,0.0,66,0.00,,,0.00,Wunderground v.1.15,2013-02-23 16:04:00,
2013-02-23 08:14:00,50.0,37.9,30.10,SE,144,0.0,0.0,63,0.00,,,0.00,Wunderground v.1.15,2013-02-23 16:14:00,
2013-02-23 08:24:00,50.8,37.0,30.11,ESE,112,0.0,0.0,59,0.00,,,0.00,Wunderground v.1.15,2013-02-23 16:24:00,
2013-02-23 08:34:00,52.6,38.2,30.11,ESE,112,0.0,0.0,58,0.00,,,0.00,Wunderground v.1.15,2013-02-23 16:34:00,
2013-02-23 08:44:00,54.6,39.2,30.10,SSE,159,0.0,0.0,56,0.00,,,0.00,Wunderground v.1.15,2013-02-23 16:44:00,
2013-02-23 08:54:00,55.2,38.4,30.10,SSE,165,0.0,0.0,53,0.00,,,0.00,Wunderground v.1.15,2013-02-23 16:54:00,
2013-02-23 09:04:00,56.6,39.7,30.10,SSE,165,0.0,0.0,53,0.00,,,0.00,Wunderground v.1.15,2013-02-23 17:04:00,
2013-02-23 09:14:00,55.9,43.9,30.09,West,264,0.0,0.0,64,0.00,,,0.00,Wunderground v.1.15,2013-02-23 17:14:00,
2013-02-23 09:24:00,55.4,46.9,30.08,SSW,211,0.0,2.0,73,0.00,,,0.00,Wunderground v.1.15,2013-02-23 17:24:00,
2013-02-23 09:34:00,55.2,47.4,30.08,SSW,205,0.0,0.0,75,0.00,,,0.00,Wunderground v.1.15,2013-02-23 17:34:00,
2013-02-23 09:44:00,55.3,47.2,30.09,WSW,247,0.0,0.0,74,0.00,,,0.00,Wunderground v.1.15,2013-02-23 17:44:00,
2013-02-23 09:54:00,55.0,47.2,30.09,West,267,0.0,0.0,75,0.00,,,0.00,Wunderground v.1.15,2013-02-23 17:54:00,
2013-02-23 10:04:00,54.7,47.6,30.09,West,266,3.0,5.0,77,0.00,,,0.00,Wunderground v.1.15,2013-02-23 18:04:00,
2013-02-23 10:14:00,54.9,47.5,30.09,WSW,250,3.0,6.0,76,0.00,,,0.00,Wunderground v.1.15,2013-02-23 18:14:00,
2013-02-23 10:24:00,55.4,48.3,30.10,WNW,284,2.0,2.0,77,0.00,,,0.00,Wunderground v.1.15,2013-02-23 18:24:00,
2013-02-23 10:34:00,55.4,47.2,30.09,WNW,294,3.0,6.0,74,0.00,,,0.00,Wunderground v.1.15,2013-02-23 18:34:00,
2013-02-23 10:44:00,55.0,47.9,30.09,SW,232,3.0,3.0,77,0.00,,,0.00,Wunderground v.1.15,2013-02-23 18:44:00,
2013-02-23 10:54:00,55.5,48.8,30.08,WSW,241,2.0,2.0,78,0.00,,,0.00,Wunderground v.1.15,2013-02-23 18:54:00,
2013-02-23 11:04:00,55.3,48.6,30.08,WNW,282,3.0,5.0,78,0.00,,,0.00,Wunderground v.1.15,2013-02-23 19:04:00,
2013-02-23 11:14:00,55.3,48.9,30.08,West,267,4.0,4.0,79,0.00,,,0.00,Wunderground v.1.15,2013-02-23 19:14:00,
2013-02-23 11:24:00,55.8,49.0,30.07,West,267,3.0,3.0,78,0.00,,,0.00,Wunderground v.1.15,2013-02-23 19:24:00,
2013-02-23 11:34:00,56.2,49.1,30.07,SW,229,3.0,3.0,77,0.00,,,0.00,Wunderground v.1.15,2013-02-23 19:34:00,
2013-02-23 11:44:00,56.5,49.4,30.06,West,274,2.0,6.0,77,0.00,,,0.00,Wunderground v.1.15,2013-02-23 19:44:00,
2013-02-23 11:54:00,56.3,49.5,30.06,West,279,4.0,4.0,78,0.00,,,0.00,Wunderground v.1.15,2013-02-23 19:54:00,
2013-02-23 12:04:00,56.6,49.5,30.05,West,261,3.0,3.0,77,0.00,,,0.00,Wunderground v.1.15,2013-02-23 20:04:00,
2013-02-23 12:14:00,56.6,49.5,30.04,South,175,4.0,4.0,77,0.00,,,0.00,Wunderground v.1.15,2013-02-23 20:14:00,
2013-02-23 12:24:00,57.6,50.1,30.04,WSW,245,2.0,5.0,76,0.00,,,0.00,Wunderground v.1.15,2013-02-23 20:24:00,
2013-02-23 12:34:00,57.0,49.9,30.03,West,267,4.0,4.0,77,0.00,,,0.00,Wunderground v.1.15,2013-02-23 20:34:00,
2013-02-23 12:44:00,57.5,49.6,30.02,WNW,288,3.0,3.0,75,0.00,,,0.00,Wunderground v.1.15,2013-02-23 20:44:00,
2013-02-23 12:54:00,56.8,48.2,30.02,SW,236,4.0,4.0,73,0.00,,,0.00,Wunderground v.1.15,2013-02-23 20:54:00,
2013-02-23 13:04:00,57.2,49.3,30.01,WNW,293,3.0,3.0,75,0.00,,,0.00,Wunderground v.1.15,2013-02-23 21:04:00,
2013-02-23 13:14:00,57.1,48.2,30.00,WNW,296,3.0,3.0,72,0.00,,,0.00,Wunderground v.1.15,2013-02-23 21:14:00,
2013-02-23 13:24:00,57.6,45.9,29.99,West,279,1.0,2.0,65,0.00,,,0.00,Wunderground v.1.15,2013-02-23 21:24:00,
2013-02-23 13:34:00,58.2,47.7,29.99,WSW,245,2.0,2.0,68,0.00,,,0.00,Wunderground v.1.15,2013-02-23 21:34:00,
2013-02-23 13:44:00,58.5,49.1,29.99,WNW,285,2.0,2.0,71,0.00,,,0.00,Wunderground v.1.15,2013-02-23 21:44:00,
2013-02-23 13:54:00,57.8,49.2,29.98,WSW,244,3.0,3.0,73,0.00,,,0.00,Wunderground v.1.15,2013-02-23 21:54:00,
2013-02-23 14:04:00,57.5,48.9,29.97,West,265,2.0,2.0,73,0.00,,,0.00,Wunderground v.1.15,2013-02-23 22:04:00,
2013-02-23 14:14:00,57.7,48.7,29.97,WNW,292,1.0,8.0,72,0.00,,,0.00,Wunderground v.1.15,2013-02-23 22:14:00,
2013-02-23 14:24:00,57.5,47.8,29.97,WSW,237,2.0,2.0,70,0.00,,,0.00,Wunderground v.1.15,2013-02-23 22:24:00,
2013-02-23 14:34:00,58.0,49.0,29.96,SW,223,2.0,3.0,72,0.00,,,0.00,Wunderground v.1.15,2013-02-23 22:34:00,
2013-02-23 14:44:00,58.2,49.2,29.96,West,263,1.0,4.0,72,0.00,,,0.00,Wunderground v.1.15,2013-02-23 22:44:00,
2013-02-23 14:54:00,58.6,49.2,29.95,SSW,202,1.0,1.0,71,0.00,,,0.00,Wunderground v.1.15,2013-02-23 22:54:00,
2013-02-23 15:04:00,58.5,48.0,29.95,WNW,287,1.0,1.0,68,0.00,,,0.00,Wunderground v.1.15,2013-02-23 23:04:00,
2013-02-23 15:14:00,58.1,46.8,29.95,West,267,2.0,2.0,66,0.00,,,0.00,Wunderground v.1.15,2013-02-23 23:14:00,
2013-02-23 15:24:00,58.1,47.2,29.95,West,260,1.0,1.0,67,0.00,,,0.00,Wunderground v.1.15,2013-02-23 23:24:00,
2013-02-23 15:34:00,58.2,46.5,29.95,WNW,284,0.0,0.0,65,0.00,,,0.00,Wunderground v.1.15,2013-02-23 23:34:00,
2013-02-23 15:44:00,58.0,47.1,29.94,WSW,255,1.0,5.0,67,0.00,,,0.00,Wunderground v.1.15,2013-02-23 23:44:00,
2013-02-23 15:54:00,58.0,46.3,29.94,WSW,238,1.0,1.0,65,0.00,,,0.00,Wunderground v.1.15,2013-02-23 23:54:00,
2013-02-23 16:04:00,57.5,47.0,29.94,WNW,284,1.0,1.0,68,0.00,,,0.00,Wunderground v.1.15,2013-02-24 00:04:00,
2013-02-23 16:14:00,57.6,47.1,29.94,SSW,209,0.0,0.0,68,0.00,,,0.00,Wunderground v.1.15,2013-02-24 00:14:00,
2013-02-23 16:24:00,57.5,47.0,29.93,SW,224,1.0,1.0,68,0.00,,,0.00,Wunderground v.1.15,2013-02-24 00:24:00,
2013-02-23 16:34:00,57.3,47.2,29.93,WNW,282,0.0,1.0,69,0.00,,,0.00,Wunderground v.1.15,2013-02-24 00:34:00,
2013-02-23 16:44:00,56.8,49.0,29.93,SW,215,0.0,0.0,75,0.00,,,0.00,Wunderground v.1.15,2013-02-24 00:44:00,
2013-02-23 16:54:00,56.6,49.5,29.93,WSW,243,0.0,0.0,77,0.00,,,0.00,Wunderground v.1.15,2013-02-24 00:54:00,
2013-02-23 17:04:00,56.2,49.4,29.93,West,279,0.0,0.0,78,0.00,,,0.00,Wunderground v.1.15,2013-02-24 01:04:00,
2013-02-23 17:14:00,55.7,49.6,29.93,SW,234,0.0,0.0,80,0.00,,,0.00,Wunderground v.1.15,2013-02-24 01:14:00,
2013-02-23 17:24:00,55.0,49.3,29.93,South,170,0.0,0.0,81,0.00,,,0.00,Wunderground v.1.15,2013-02-24 01:24:00,
2013-02-23 17:34:00,54.8,49.4,29.93,South,180,0.0,0.0,82,0.00,,,0.00,Wunderground v.1.15,2013-02-24 01:34:00,
2013-02-23 17:44:00,54.3,48.9,29.93,South,173,0.0,0.0,82,0.00,,,0.00,Wunderground v.1.15,2013-02-24 01:44:00,
2013-02-23 17:54:00,54.1,49.1,29.93,SW,215,0.0,0.0,83,0.00,,,0.00,Wunderground v.1.15,2013-02-24 01:54:00,
2013-02-23 18:04:00,53.8,48.8,29.93,SW,215,0.0,0.0,83,0.00,,,0.00,Wunderground v.1.15,2013-02-24 02:04:00,
2013-02-23 18:14:00,53.7,48.7,29.94,SW,215,0.0,0.0,83,0.00,,,0.00,Wunderground v.1.15,2013-02-24 02:14:00,
2013-02-23 18:24:00,53.4,47.7,29.94,SW,215,0.0,0.0,81,0.00,,,0.00,Wunderground v.1.15,2013-02-24 02:24:00,
2013-02-23 18:34:00,53.1,47.7,29.94,SW,215,0.0,0.0,82,0.00,,,0.00,Wunderground v.1.15,2013-02-24 02:34:00,
2013-02-23 18:44:00,52.8,47.5,29.94,SW,215,0.0,0.0,82,0.00,,,0.00,Wunderground v.1.15,2013-02-24 02:44:00,
2013-02-23 18:54:00,52.5,47.5,29.95,SW,215,0.0,0.0,83,0.00,,,0.00,Wunderground v.1.15,2013-02-24 02:54:00,
2013-02-23 19:04:00,52.3,47.6,29.94,SW,215,0.0,0.0,84,0.00,,,0.00,Wunderground v.1.15,2013-02-24 03:04:00,
2013-02-23 19:14:00,52.1,47.4,29.94,SW,215,0.0,0.0,84,0.00,,,0.00,Wunderground v.1.15,2013-02-24 03:14:00,
2013-02-23 19:24:00,51.7,47.0,29.95,SW,215,0.0,0.0,84,0.00,,,0.00,Wunderground v.1.15,2013-02-24 03:24:00,
2013-02-23 19:34:00,51.4,47.0,29.94,SW,215,0.0,0.0,85,0.00,,,0.00,Wunderground v.1.15,2013-02-24 03:34:00,
2013-02-23 19:44:00,51.4,47.0,29.95,East,86,0.0,0.0,85,0.00,,,0.00,Wunderground v.1.15,2013-02-24 03:44:00,
2013-02-23 19:54:00,51.0,46.6,29.95,East,86,0.0,0.0,85,0.00,,,0.00,Wunderground v.1.15,2013-02-24 03:54:00,
2013-02-23 20:04:00,50.9,47.2,29.95,East,86,0.0,0.0,87,0.00,,,0.00,Wunderground v.1.15,2013-02-24 04:04:00,
2013-02-23 20:14:00,50.8,47.1,29.95,East,86,0.0,0.0,87,0.00,,,0.00,Wunderground v.1.15,2013-02-24 04:14:00,
2013-02-23 20:24:00,50.7,47.0,29.96,East,83,0.0,0.0,87,0.00,,,0.00,Wunderground v.1.15,2013-02-24 04:24:00,
2013-02-23 20:34:00,50.5,47.1,29.94,East,84,0.0,0.0,88,0.00,,,0.00,Wunderground v.1.15,2013-02-24 04:34:00,
2013-02-23 23:04:00,48.1,45.0,29.99,NNE,24,0.0,0.0,89,0.00,,,0.00,Wunderground v.1.15,2013-02-24 07:04:00,
2013-02-23 23:14:00,47.6,44.5,29.99,NNE,24,0.0,0.0,89,0.00,,,0.00,Wunderground v.1.15,2013-02-24 07:14:00,
2013-02-23 23:24:00,47.3,44.2,29.98,NNE,24,0.0,0.0,89,0.00,,,0.00,Wunderground v.1.15,2013-02-24 07:24:00,
2013-02-23 23:34:00,47.0,43.9,29.98,NNE,24,0.0,0.0,89,0.00,,,0.00,Wunderground v.1.15,2013-02-24 07:34:00,
2013-02-23 23:44:00,46.5,43.4,29.98,NNE,24,0.0,0.0,89,0.00,,,0.00,Wunderground v.1.15,2013-02-24 07:44:00,
2013-02-23 23:54:00,46.0,42.9,29.98,NNE,24,0.0,0.0,89,0.00,,,0.00,Wunderground v.1.15,2013-02-24 07:54:00,